World > North America > United States > Ohio   City of Cleveland, OH

Cleveland, Ohio Regional Weather

Lat: 41.48N, Lon: 81.68W
Wx Zone: OHZ011
Feedback

Cleveland, OH Regional Weather

Expires:202004051100;;602662
ASUS41 KCLE 051012
RWRCLE
OHIO REGIONAL WEATHER ROUNDUP
NATIONAL WEATHER SERVICE WILMINGTON, OH
600 AM EDT SUN APR 05 2020

NOTE: "FAIR" INDICATES FEW OR NO CLOUDS BELOW 12,000 FEET WITH NO
SIGNIFICANT WEATHER AND/OR OBSTRUCTIONS TO VISIBILITY.


OHZ009>014-019>023-028>033-038-089-051100-
   NORTHEAST OHIO
  
CITY           SKY/WX    TMP DP  RH WIND       PRES   REMARKS
CLE-HOPKINS    CLOUDY    43  38  82 N12       30.09R                  
CLE-LAKEFRONT  CLOUDY    43  38  82 N14       30.07R                  
CUY CO. ARPT   CLOUDY    40  38  91 N10       30.08R                  
LORAIN-ELYRIA  CLOUDY    42  36  79 NE9       30.08R                  
ASHTABULA      MOCLDY    42  38  85 N5        30.06R                  
AKRON-CANTON   MOCLDY    47  35  63 N10       30.02R                  
WOOSTER        MOCLDY    45  40  82 N9        30.04R                  
MANSFIELD      CLOUDY    48  45  89 N8        30.04S                  
YOUNGSTOWN     CLOUDY    48  39  71 N8        30.02R                  
$$
 

SKY/WX - Weather  TMP - Temperature  DP - Dew Point  RH - Relative Humidity
WIND - Wind Direction/Speed PRES - Barometric Pressure VSB - Visibility
WCI - Wind Chill Index E13G22 Wind - East Wind 13 mph/Gusts of 22 mph
Cleveland Weather Map
UTC Time: 4/5/2020, 10:57
Your Time: